Flag for Germany Weather past 2 weeks in Bergisch Gladbach, North Rhine-Westphalia, Germany

Now
52 °F

Fog.


Feels Like: 49 °F
Forecast: 53 / 70 °F
Wind: 7 mph from Southeast

Location: Koeln / Bonn

Current Time: Oct 2, 2014 at 2:25:38 AM

Latest Report: Oct 2, 2014 at 1:50 AM


Visibility: N/A

Pressure: 30.36 "Hg

Humidity: 94%

Dew point: 50 °F

Location of Bergisch GladbachLocation

Historic Weather in Bergisch Gladbach — Graph

°F

Bergisch Gladbach temperature yesterday

Maximum temperature yesterday: 72 °F (at 2:20 PM)
Minimum temperature yesterday: 52 °F (at 2:20 AM)
Average temperature yesterday: 60 °F

Past Weeks' High & Low Weather Summary

 TemperatureHumidityPressure
High77 °F (Sep 17, 3:50 PM)100% (Sep 19, 11:50 PM)30.39 "Hg (Sep 19, 11:50 PM)
Low43 °F (Sep 23, 4:20 AM)44% (Sep 17, 4:20 PM)29.83 "Hg (Sep 18, 3:50 PM)
Average60 °F82%30.10 "Hg
* Reported Sep 17 1:20 AM — Oct 2 1:20 AM, Bergisch Gladbach, Weather by CustomWeather, © 2014

Note: Actual official high and low records may vary slightly from our data, if they occured in-between our weather recording intervals... More about our weather records

Advertising

Bergisch Gladbach weather history for previous 24 hours

 ConditionsComfort  
Time TempWeatherWind HumidityBarometerVisibility
1:20 AM
Oct 2
52 °FFog.5 mph94%30.36 "HgN/A
12:50 AM54 °FFog.5 mph94%30.36 "HgN/A
12:20 AM54 °FFog.3 mph100%30.36 "HgN/A
11:50 PM
Oct 1
55 °FFog.6 mph94%30.36 "HgN/A
11:20 PM55 °FFog.6 mph94%30.36 "HgN/A
10:50 PM55 °FFog.5 mph94%30.36 "HgN/A
10:20 PM57 °FPassing clouds.5 mph94%30.36 "HgN/A
9:50 PM57 °FPassing clouds.5 mph94%30.36 "HgN/A
9:20 PM57 °FFog.5 mph94%30.33 "HgN/A
8:50 PM59 °FFog.5 mph88%30.33 "HgN/A
8:20 PM59 °FPassing clouds.3 mph88%30.33 "HgN/A
7:50 PM61 °FPassing clouds.5 mph83%30.33 "HgN/A
7:20 PM64 °FPassing clouds.3 mph78%30.33 "HgN/A
6:50 PM66 °FPassing clouds.3 mph73%30.30 "HgN/A
6:20 PM68 °FPassing clouds.3 mph69%30.30 "HgN/A
5:50 PM68 °FPassing clouds.3 mph64%30.30 "HgN/A
5:20 PM68 °FScattered clouds.7 mph60%30.30 "HgN/A
4:50 PM68 °FScattered clouds.6 mph64%30.30 "HgN/A
4:20 PM70 °FPassing clouds.8 mph60%30.30 "HgN/A
3:50 PM70 °FScattered clouds.6 mph57%30.30 "HgN/A
3:20 PM72 °FScattered clouds.6 mph57%30.30 "HgN/A
2:50 PM70 °FScattered clouds.6 mph60%30.30 "HgN/A
2:20 PM72 °FScattered clouds.5 mph61%30.30 "HgN/A
1:50 PM70 °FScattered clouds.3 mph64%30.33 "HgN/A
1:20 PM70 °FPassing clouds.6 mph64%30.33 "HgN/A
12:50 PM68 °FPassing clouds.3 mph69%30.33 "HgN/A
12:20 PM66 °FScattered clouds.5 mph73%30.33 "HgN/A
11:50 AM66 °FScattered clouds.3 mph73%30.33 "HgN/A
11:20 AM64 °FScattered clouds.1 mph83%30.33 "Hg6 mi
10:50 AM63 °FScattered clouds.2 mph83%30.33 "Hg6 mi
10:20 AM59 °FPartly sunny.3 mph94%30.33 "Hg5 mi
9:50 AM57 °FClear.6 mph94%30.33 "Hg4 mi
9:20 AM57 °FClear.3 mph100%30.30 "Hg4 mi
8:50 AM54 °FFog.2 mph100%30.30 "Hg3 mi
8:20 AM52 °FFog.2 mph94%30.30 "Hg3 mi
7:50 AM54 °FFog.2 mph94%30.30 "Hg3 mi
7:20 AM54 °FFog.2 mph94%30.30 "Hg3 mi
6:50 AM54 °FFog.2 mph94%30.30 "Hg4 mi
6:20 AM54 °FPassing clouds.1 mph94%30.30 "Hg4 mi
5:50 AM55 °FPartly cloudy.3 mph100%30.30 "Hg4 mi
5:20 AM54 °FPassing clouds.3 mph100%30.30 "Hg4 mi
4:50 AM54 °FPassing clouds.2 mph94%30.30 "Hg4 mi
4:20 AM52 °FPassing clouds.2 mph100%30.30 "Hg4 mi
3:50 AM54 °FClear.3 mph94%30.30 "Hg4 mi
3:20 AM54 °FClear.2 mph100%30.30 "Hg4 mi
2:50 AM54 °FClear.2 mph94%30.30 "Hg4 mi
2:20 AM52 °FFog.3 mph94%30.30 "Hg4 mi
Weather by CustomWeather, © 2014

See weather overviewHow to use our weather pages